GW3467 Weather Reports


time (UTC)temp
C
wind
direction
speed
KPH
gust
KPH
rain 1hr
cm
rain 24hr
cm
rain mn
cm
humidity
%
barometer
mb
20260510203206 17 246 4.8 11.3 0.00 0.00 0.00 49 1018.2
20260510202705 17 205 3.2 9.7 0.00 0.00 0.00 48 1018.1
20260510202200 18 281 4.8 9.7 0.00 0.00 0.00 44 1018.2
20260510201658 17 17 3.2 3.2 0.00 0.00 0.00 48 1018.1
20260510201155 17 5 6.4 12.9 0.00 0.00 0.00 48 1018.3
20260510200651 17 163 4.8 6.4 0.00 0.00 0.00 45 1018.3
20260510200149 17 235 8.0 14.5 0.00 0.00 0.00 45 1018.3
20260510195646 17 279 6.4 11.3 0.00 0.00 0.00 44 1018.5
20260510195143 18 70 3.2 4.8 0.00 0.00 0.00 42 1018.4
20260510194642 17 194 0.0 1.6 0.00 0.00 0.00 41 1018.4
20260510194138 17 266 8.0 12.9 0.00 0.00 0.00 46 1018.5
20260510193633 17 243 4.8 9.7 0.00 0.00 0.00 47 1018.5
20260510193129 17 237 4.8 12.9 0.00 0.00 0.00 51 1018.7
20260510192625 17 308 4.8 9.7 0.00 0.00 0.00 47 1018.4
20260510192120 16 118 3.2 6.4 0.00 0.00 0.00 46 1018.6
20260510191617 17 20 4.8 6.4 0.00 0.00 0.00 48 1018.5
20260510191113 17 193 1.6 3.2 0.00 0.00 0.00 43 1018.4
20260510190611 17 199 1.6 4.8 0.00 0.00 0.00 46 1018.3
20260510190108 17 165 0.0 6.4 0.00 0.00 0.00 59 1018.2
20260510185605 16 74 3.2 9.7 0.00 0.00 0.00 49 1018.6
20260510185102 17 126 3.2 9.7 0.00 0.00 0.00 49 1018.3
20260510184559 16 299 6.4 11.3 0.00 0.00 0.00 50 1018.3
20260510184055 16 349 4.8 16.1 0.00 0.00 0.00 51 1018.6
20260510183550 16 289 8.0 9.7 0.00 0.00 0.00 48 1018.6
20260510183046 17 247 4.8 6.4 0.00 0.00 0.00 51 1018.4
20260510182543 16 248 1.6 3.2 0.00 0.00 0.00 52 1018.2
20260510182033 16 269 6.4 9.7 0.00 0.00 0.00 50 1018.3
20260510181531 16 98 3.2 9.7 0.00 0.00 0.00 49 1018.5
20260510181026 16 188 0.0 6.4 0.00 0.00 0.00 54 1018.4
20260510180523 16 47 3.2 9.7 0.00 0.00 0.00 56 1018.0
20260510180021 16 273 8.0 9.7 0.00 0.00 0.00 55 1018.0
20260510175515 16 202 0.0 9.7 0.00 0.00 0.00 54 1017.9
20260510175012 16 167 3.2 9.7 0.00 0.00 0.00 58 1018.0
20260510174510 16 200 0.0 4.8 0.00 0.00 0.00 57 1018.0
20260510174007 16 347 4.8 6.4 0.00 0.00 0.00 60 1017.9
20260510173502 15 169 3.2 11.3 0.00 0.00 0.00 56 1018.2
20260510172959 15 181 1.6 9.7 0.00 0.00 0.00 61 1017.9
20260510172455 16 42 8.0 11.3 0.00 0.00 0.00 55 1018.0
20260510171951 15 327 11.3 22.5 0.00 0.00 0.00 58 1018.1
20260510171448 16 176 3.2 6.4 0.00 0.00 0.00 55 1018.3
20260510170945 16 235 6.4 12.9 0.00 0.00 0.00 57 1018.3
20260510170442 15 146 1.6 9.7 0.00 0.00 0.00 61 1018.3
20260510165938 16 188 1.6 9.7 0.00 0.00 0.00 56 1018.4
20260510165434 15 256 1.6 3.2 0.00 0.00 0.00 56 1018.4
20260510164931 15 45 1.6 11.3 0.00 0.00 0.00 57 1018.3
20260510164428 16 146 1.6 6.4 0.00 0.00 0.00 71 1018.3
20260510163929 15 250 4.8 14.5 0.00 0.00 0.00 59 1018.3
20260510163425 15 269 6.4 12.9 0.00 0.00 0.00 61 1018.3
20260510162920 16 200 1.6 4.8 0.00 0.00 0.00 66 1018.3
20260510162417 15 259 4.8 12.9 0.00 0.00 0.00 65 1018.1
20260510161913 15 222 1.6 11.3 0.00 0.00 0.00 64 1018.1
20260510161408 16 188 1.6 3.2 0.00 0.00 0.00 65 1018.0
20260510160905 15 225 1.6 3.2 0.00 0.00 0.00 66 1018.1
20260510160403 15 204 0.0 6.4 0.00 0.00 0.00 62 1018.1
20260510155856 15 117 3.2 11.3 0.00 0.00 0.00 67 1017.9
20260510155353 15 193 0.0 3.2 0.00 0.00 0.00 64 1017.9
20260510154849 15 262 1.6 4.8 0.00 0.00 0.00 64 1017.9
20260510154345 15 41 3.2 6.4 0.00 0.00 0.00 61 1017.6
20260510153840 15 4 4.8 6.4 0.00 0.00 0.00 63 1017.7
20260510153336 15 207 4.8 6.4 0.00 0.00 0.00 61 1017.6
20260510152833 14 11 6.4 9.7 0.00 0.00 0.00 60 1017.8
20260510152330 15 96 4.8 4.8 0.00 0.00 0.00 62 1017.5
20260510151826 15 171 0.0 6.4 0.00 0.00 0.00 59 1017.6
20260510151324 15 157 1.6 4.8 0.00 0.00 0.00 68 1017.5
20260510150820 14 196 0.0 3.2 0.00 0.00 0.00 64 1017.6
20260510150316 15 161 4.8 11.3 0.00 0.00 0.00 65 1017.5
20260510145812 14 272 3.2 3.2 0.00 0.00 0.00 63 1017.4
20260510145308 14 150 3.2 4.8 0.00 0.00 0.00 65 1017.2
20260510144805 13 191 1.6 9.7 0.00 0.00 0.00 69 1017.3
20260510144302 13 177 3.2 6.4 0.00 0.00 0.00 61 1017.1
20260510143802 13 151 1.6 6.4 0.00 0.00 0.00 67 1017.0
20260510143258 13 61 3.2 4.8 0.00 0.00 0.00 72 1017.2
20260510142754 12 333 4.8 11.3 0.00 0.00 0.00 73 1016.9
20260510142251 13 51 3.2 9.7 0.00 0.00 0.00 72 1016.8
20260510141749 13 273 8.0 11.3 0.00 0.00 0.00 69 1016.9
20260510141246 12 136 0.0 3.2 0.00 0.00 0.00 76 1016.6
20260510140742 12 181 0.0 6.4 0.00 0.00 0.00 76 1016.6
20260510140237 12 94 1.6 6.4 0.00 0.00 0.00 77 1016.2
20260510135732 12 91 3.2 12.9 0.00 0.00 0.00 78 1016.4
20260510135228 12 149 3.2 4.8 0.00 0.00 0.00 73 1016.6
20260510134726 11 180 0.0 6.4 0.00 0.00 0.00 76 1016.8
20260510134223 11 135 1.6 3.2 0.00 0.00 0.00 80 1016.5
20260510133718 11 48 3.2 6.4 0.00 0.00 0.00 80 1016.6
20260510133215 11 73 1.6 4.8 0.00 0.00 0.00 80 1016.3
20260510132711 10 206 1.6 1.6 0.00 0.00 0.00 82 1016.5
20260510132208 10 170 0.0 3.2 0.00 0.00 0.00 83 1016.4
20260510131705 10 187 0.0 3.2 0.00 0.00 0.00 81 1016.2
20260510131203 10 160 0.0 1.6 0.00 0.00 0.00 83 1016.3
20260510130653 10 150 0.0 1.6 0.00 0.00 0.00 83 1016.2
20260510130151 10 135 1.6 1.6 0.00 0.00 0.00 83 1016.3
20260510125647 10 168 0.0 1.6 0.00 0.00 0.00 83 1016.4
20260510125143 10 202 0.0 1.6 0.00 0.00 0.00 84 1016.3
20260510124641 10 166 0.0 1.6 0.00 0.00 0.00 83 1016.0
20260510124137 10 194 1.6 1.6 0.00 0.00 0.00 83 1015.8
20260510123632 10 191 0.0 0.0 0.00 0.00 0.00 85 1015.9
20260510123129 10 191 0.0 0.0 0.00 0.00 0.00 84 1015.8
20260510122625 10 191 0.0 0.0 0.00 0.00 0.00 86 1015.9
20260510122121 10 202 0.0 1.6 0.00 0.00 0.00 84 1015.7
20260510121618 10 208 0.0 0.0 0.00 0.00 0.00 86 1015.9
20260510121115 9 208 0.0 0.0 0.00 0.00 0.00 85 1015.6
20260510120613 9 207 0.0 0.0 0.00 0.00 0.00 85 1015.6
20260510120108 10 187 0.0 1.6 0.00 0.00 0.00 86 1015.2
20260510115605 9 185 1.6 1.6 0.00 0.00 0.00 85 1015.0
20260510115103 9 199 0.0 0.0 0.00 0.00 0.00 84 1015.2
20260510114558 9 199 0.0 0.0 0.00 0.00 0.00 84 1014.9
20260510114054 9 200 0.0 1.6 0.00 0.00 0.00 82 1015.2
20260510113549 9 201 0.0 1.6 0.00 0.00 0.00 82 1015.2
20260510113048 9 149 0.0 0.0 0.00 0.00 0.00 83 1014.5
20260510112544 9 149 0.0 0.0 0.00 0.00 0.00 85 1014.5
20260510112040 9 149 0.0 0.0 0.00 0.00 0.00 84 1014.5
20260510111537 9 149 0.0 0.0 0.00 0.00 0.00 86 1014.3
20260510111033 9 149 0.0 0.0 0.00 0.00 0.00 83 1014.4
20260510110529 9 149 0.0 0.0 0.00 0.00 0.00 78 1014.4
20260510110026 9 210 0.0 0.0 0.00 0.00 0.00 80 1014.4
20260510105521 10 197 0.0 1.6 0.00 0.00 0.00 80 1014.3
20260510105016 10 109 1.6 3.2 0.00 0.00 0.00 79 1013.6
20260510104513 10 207 0.0 1.6 0.00 0.00 0.00 75 1014.1
20260510104009 10 207 0.0 1.6 0.00 0.00 0.00 75 1014.0
20260510103507 10 223 3.2 4.8 0.00 0.00 0.00 74 1014.1
20260510103003 10 180 0.0 3.2 0.00 0.00 0.00 76 1013.9
20260510102458 10 182 0.0 0.0 0.00 0.00 0.00 78 1013.8
20260510101955 10 184 0.0 3.2 0.00 0.00 0.00 74 1013.6
20260510101453 10 205 0.0 1.6 0.00 0.00 0.00 76 1013.6
20260510100951 10 198 0.0 1.6 0.00 0.00 0.00 75 1013.2
20260510100447 10 117 3.2 3.2 0.00 0.00 0.00 75 1012.8
20260510095943 10 66 3.2 6.4 0.00 0.00 0.00 75 1012.8
20260510095439 10 191 0.0 11.3 0.00 0.00 0.00 78 1012.8
20260510094938 10 150 1.6 3.2 0.00 0.00 0.00 78 1012.9
20260510094433 10 272 6.4 6.4 0.00 0.00 0.00 79 1012.6
20260510093929 10 202 0.0 1.6 0.00 0.00 0.00 81 1012.8
20260510093424 10 159 1.6 3.2 0.00 0.00 0.00 81 1012.5
20260510092921 11 244 1.6 4.8 0.00 0.00 0.00 78 1012.5
20260510092418 10 101 1.6 4.8 0.00 0.00 0.00 80 1012.5
20260510091913 11 348 6.4 6.4 0.00 0.00 0.00 81 1012.5
20260510091410 11 123 1.6 4.8 0.00 0.00 0.00 85 1012.4
20260510090906 11 13 6.4 9.7 0.00 0.00 0.00 84 1012.3
20260510090403 11 236 4.8 4.8 0.00 0.00 0.00 85 1012.1
20260510085858 11 282 3.2 11.3 0.00 0.00 0.00 86 1011.9
20260510085353 11 4 4.8 9.7 0.00 0.00 0.00 88 1012.1
20260510084844 11 6 1.6 12.9 0.00 0.00 0.00 87 1011.9
20260510084342 12 198 1.6 9.7 0.00 0.00 0.00 87 1011.9
20260510083838 12 299 9.7 14.5 0.00 0.00 0.00 87 1011.8
20260510083335 12 177 3.2 9.7 0.00 0.00 0.00 86 1011.6
20260510082830 12 0 6.4 9.7 0.00 0.00 0.00 85 1011.6
20260510082328 12 332 6.4 6.4 0.00 0.00 0.00 84 1011.6
20260510081826 12 281 8.0 9.7 0.00 0.00 0.00 83 1011.4
20260510081323 12 303 3.2 16.1 0.00 0.00 0.00 82 1011.5
20260510080819 13 242 4.8 11.3 0.00 0.00 0.00 84 1011.3
20260510080314 13 62 3.2 4.8 0.00 0.00 0.00 83 1011.4
20260510075811 13 277 4.8 6.4 0.00 0.00 0.00 82 1011.3
20260510075308 13 304 8.0 11.3 0.00 0.00 0.00 82 1011.2
20260510074805 13 269 4.8 6.4 0.00 0.00 0.00 83 1011.2
20260510074302 14 350 6.4 9.7 0.00 0.00 0.00 82 1011.1
20260510073758 14 274 8.0 12.9 0.00 0.00 0.00 83 1011.1
20260510073254 14 31 3.2 11.3 0.00 0.00 0.00 83 1011.1
20260510072750 15 230 3.2 12.9 0.00 0.00 0.00 83 1011.1
20260510072247 14 300 6.4 11.3 0.00 0.00 0.00 83 1011.2
20260510071743 14 197 0.0 1.6 0.00 0.00 0.00 84 1011.0
20260510071240 14 220 0.0 3.2 0.00 0.00 0.00 83 1011.0
20260510070738 15 212 0.0 4.8 0.00 0.00 0.00 83 1010.9
20260510070235 15 215 1.6 3.2 0.00 0.00 0.00 83 1010.9
20260510065729 15 210 1.6 4.8 0.00 0.00 0.00 82 1010.8
20260510065226 15 247 6.4 6.4 0.00 0.00 0.00 82 1011.0
20260510064723 15 185 1.6 6.4 0.00 0.00 0.00 81 1011.0
20260510064221 15 208 3.2 4.8 0.00 0.00 0.00 81 1010.9
20260510063717 15 207 3.2 6.4 0.00 0.00 0.00 81 1010.8
20260510063213 15 209 3.2 4.8 0.00 0.00 0.00 80 1011.1
20260510062710 15 231 6.4 9.7 0.00 0.00 0.00 80 1011.0
20260510062206 15 207 6.4 11.3 0.00 0.00 0.00 79 1011.0
20260510061701 15 222 1.6 6.4 0.00 0.00 0.00 80 1010.8
20260510061158 15 263 6.4 9.7 0.00 0.00 0.00 79 1010.9
20260510060655 15 182 0.0 6.4 0.00 0.00 0.00 79 1010.9
20260510060151 15 225 3.2 9.7 0.00 0.00 0.00 79 1010.8
20260510055647 15 214 4.8 4.8 0.00 0.00 0.00 79 1010.8
20260510055145 15 225 3.2 9.7 0.00 0.00 0.00 79 1010.6
20260510054641 15 189 3.2 3.2 0.00 0.00 0.00 82 1010.6
20260510054137 14 180 1.6 1.6 0.00 0.00 0.00 82 1010.5
20260510053636 14 169 1.6 1.6 0.00 0.00 0.00 83 1010.8
20260510053133 14 165 1.6 1.6 0.00 0.00 0.00 83 1010.6
20260510052629 13 184 1.6 3.2 0.00 0.00 0.00 84 1010.6
20260510052120 13 185 0.0 1.6 0.00 0.00 0.00 85 1010.6
20260510051615 13 185 1.6 1.6 0.00 0.00 0.00 85 1010.5
20260510051113 14 184 1.6 3.2 0.00 0.00 0.00 84 1010.5
20260510050610 15 188 1.6 1.6 0.00 0.00 0.00 80 1010.8
20260510050107 15 190 0.0 1.6 0.00 0.00 0.00 80 1010.5
20260510045604 15 191 1.6 1.6 0.00 0.00 0.00 80 1010.4
20260510045100 15 210 0.0 0.0 0.00 0.00 0.00 80 1010.8
20260510044556 15 229 0.0 3.2 0.00 0.00 0.00 79 1010.6
20260510044054 15 154 0.0 1.6 0.00 0.00 0.00 78 1010.5
20260510043549 15 266 4.8 4.8 0.00 0.00 0.00 79 1010.9
20260510043045 15 303 4.8 9.7 0.00 0.00 0.00 79 1011.1
20260510042545 16 295 6.4 12.9 0.00 0.00 0.00 78 1011.2
20260510042040 16 265 4.8 6.4 0.00 0.00 0.00 75 1010.4
20260510041537 16 202 3.2 4.8 0.00 0.00 0.00 75 1010.1
20260510041035 16 228 3.2 3.2 0.00 0.00 0.00 75 1010.0
20260510040531 16 203 1.6 6.4 0.00 0.00 0.00 75 1009.9
20260510040027 16 212 3.2 4.8 0.00 0.15 0.15 75 1009.9
20260510035524 16 216 1.6 6.4 0.00 0.15 0.15 75 1009.9
20260510035023 16 232 3.2 4.8 0.00 0.15 0.15 75 1009.9
20260510034522 16 200 1.6 3.2 0.00 0.15 0.15 76 1009.8
20260510034018 16 236 3.2 4.8 0.00 0.15 0.15 75 1009.9
20260510033514 16 197 1.6 3.2 0.00 0.15 0.15 75 1009.8
20260510033012 16 223 4.8 4.8 0.00 0.15 0.15 74 1009.6
20260510032508 16 192 0.0 3.2 0.00 0.15 0.15 74 1009.6
20260510032003 16 213 1.6 6.4 0.00 0.15 0.15 74 1009.8
20260510031458 16 194 4.8 12.9 0.00 0.15 0.15 73 1009.7
20260510030955 16 210 6.4 11.3 0.00 0.15 0.15 73 1009.6
20260510030450 16 180 3.2 6.4 0.00 0.15 0.15 73 1009.6
20260510025947 17 247 3.2 6.4 0.00 0.15 0.15 73 1009.8
20260510025445 16 191 6.4 6.4 0.00 0.15 0.15 73 1009.7
20260510024942 17 202 3.2 4.8 0.00 0.15 0.15 72 1009.5
20260510024438 16 191 0.0 3.2 0.00 0.15 0.15 73 1009.7
20260510023934 16 201 1.6 4.8 0.00 0.15 0.15 73 1009.6
20260510023430 16 187 4.8 4.8 0.00 0.15 0.15 73 1009.5
20260510022928 16 197 0.0 1.6 0.00 0.15 0.15 74 1009.5
20260510022427 16 203 0.0 3.2 0.00 0.15 0.15 73 1009.3
20260510021926 17 228 1.6 3.2 0.00 0.15 0.15 72 1009.1
20260510021424 17 219 1.6 3.2 0.00 0.15 0.15 71 1009.2
20260510020920 17 241 1.6 6.4 0.00 0.15 0.15 70 1009.2
20260510020415 17 201 0.0 3.2 0.00 0.15 0.15 69 1009.1
20260510015911 17 173 3.2 4.8 0.00 0.15 0.15 69 1009.0
20260510015407 17 189 1.6 11.3 0.00 0.15 0.15 68 1008.9
20260510014902 17 194 0.0 3.2 0.00 0.15 0.15 69 1008.9
20260510014401 18 189 3.2 4.8 0.00 0.15 0.15 68 1008.9
20260510013856 18 171 0.0 3.2 0.00 0.15 0.15 68 1008.9
20260510013352 18 193 1.6 4.8 0.00 0.15 0.15 66 1008.9
20260510012847 18 175 0.0 3.2 0.00 0.15 0.15 66 1008.7
20260510012342 18 220 3.2 6.4 0.00 0.15 0.15 65 1008.6
20260510011837 18 218 3.2 11.3 0.00 0.15 0.15 64 1008.6
20260510011332 18 232 4.8 9.7 0.00 0.15 0.15 64 1008.5
20260510010829 18 223 4.8 4.8 0.00 0.15 0.15 64 1008.1
20260510010326 18 199 3.2 6.4 0.00 0.15 0.15 64 1008.4
20260510005823 18 200 3.2 11.3 0.00 0.15 0.15 63 1008.2
20260510005319 18 249 6.4 11.3 0.00 0.15 0.15 62 1008.2
20260510004817 18 221 4.8 6.4 0.00 0.15 0.15 63 1008.0
20260510004314 18 217 11.3 14.5 0.00 0.15 0.15 62 1007.9
20260510003812 18 293 6.4 9.7 0.00 0.15 0.15 62 1008.0
20260510003309 18 200 6.4 17.7 0.00 0.15 0.15 61 1007.9
20260510002807 18 202 4.8 9.7 0.00 0.15 0.15 62 1007.9
20260510002307 18 220 3.2 6.4 0.00 0.15 0.15 63 1008.0
20260510001801 18 207 6.4 11.3 0.00 0.15 0.15 62 1007.8
20260510001300 19 245 3.2 6.4 0.00 0.15 0.15 62 1007.9
20260510000755 19 201 6.4 11.3 0.00 0.15 0.15 62 1007.9
20260510000253 19 173 6.4 24.1 0.00 0.15 0.15 61 1007.8
20260509235750 19 225 3.2 11.3 0.00 0.15 0.15 63 1007.5
20260509235246 19 203 3.2 6.4 0.00 0.15 0.15 64 1007.6
20260509234742 19 190 8.0 9.7 0.00 0.15 0.15 63 1007.8
20260509234239 19 171 3.2 12.9 0.00 0.15 0.15 64 1007.3
20260509233737 19 218 8.0 11.3 0.00 0.15 0.15 64 1007.8
20260509233234 20 242 3.2 9.7 0.00 0.15 0.15 63 1007.5
20260509232730 19 223 11.3 14.5 0.00 0.15 0.15 64 1007.4
20260509232227 19 221 4.8 6.4 0.00 0.15 0.15 65 1007.4
20260509231724 19 223 4.8 11.3 0.00 0.15 0.15 66 1007.6
20260509231221 20 200 4.8 6.4 0.00 0.15 0.15 64 1007.4
20260509230719 20 243 8.0 14.5 0.00 0.15 0.15 64 1007.3
20260509230215 20 186 9.7 11.3 0.00 0.15 0.15 63 1007.3
20260509225711 20 193 12.9 20.9 0.00 0.15 0.15 61 1007.5
20260509225207 20 115 1.6 11.3 0.00 0.15 0.15 60 1007.3
20260509224702 20 222 6.4 12.9 0.00 0.15 0.15 61 1007.3
20260509224200 21 207 6.4 11.3 0.00 0.15 0.15 62 1007.4
20260509223656 21 184 4.8 11.3 0.00 0.15 0.15 62 1007.2
20260509223154 21 229 6.4 14.5 0.00 0.15 0.15 61 1007.1
20260509222651 21 185 1.6 11.3 0.00 0.15 0.15 63 1007.1
20260509222146 21 209 8.0 17.7 0.00 0.15 0.15 61 1007.3
20260509221642 21 202 4.8 14.5 0.00 0.15 0.15 61 1007.2
20260509221138 21 179 6.4 11.3 0.00 0.15 0.15 61 1007.3
20260509220634 21 196 3.2 6.4 0.00 0.15 0.15 61 1007.2
20260509220130 21 235 3.2 16.1 0.00 0.15 0.15 61 1007.4
20260509215627 21 203 3.2 16.1 0.00 0.15 0.15 62 1007.2
20260509215123 20 208 4.8 20.9 0.00 0.15 0.15 60 1007.5
20260509214621 21 182 9.7 14.5 0.00 0.15 0.15 60 1007.3
20260509214117 21 208 4.8 20.9 0.00 0.15 0.15 60 1007.4
20260509213613 20 228 4.8 17.7 0.00 0.15 0.15 59 1007.3
20260509213110 20 216 11.3 27.4 0.00 0.15 0.15 60 1007.3
20260509212607 20 146 11.3 17.7 0.00 0.15 0.15 61 1007.2
20260509212104 21 215 6.4 11.3 0.00 0.15 0.15 60 1007.4
20260509211600 21 204 9.7 20.9 0.00 0.15 0.15 60 1007.5
20260509211057 20 209 9.7 14.5 0.00 0.15 0.15 61 1007.5
20260509210553 20 199 6.4 17.7 0.00 0.15 0.15 62 1007.6
20260509210050 20 187 16.1 27.4 0.00 0.15 0.15 62 1007.6
20260509205544 20 190 11.3 20.9 0.00 0.15 0.15 62 1007.8
20260509205040 20 184 6.4 11.3 0.00 0.15 0.15 64 1007.5
20260509204536 20 213 4.8 9.7 0.00 0.15 0.15 64 1007.8
20260509204032 20 143 3.2 14.5 0.00 0.15 0.15 60 1007.6